When you browse on this site, cookies collect data to enhance your experience and personalize the content and advertising you see.
Visit our Privacy Policy to learn more. By continuing to use the site, you agree to this use of cookies and data.
  • In Romania
  • List of Countries
  • For 7 days
  • Water Temperature
  • Satellite Maps
  • Weather Map
  • Weather Widgets
  • user-avatar
    Login

    Hourly Weather Kotagiri

    Today, 15 February, Friday

    Time Temperature Precipitation Wind Pressure Humidity
    00:00 +16°C° 0.1 mm 1 mps 620 mmHg 79%
    01:00 +15°C° 0.1 mm 1 mps 619 mmHg 83%
    02:00 +15°C° 0.1 mm 1 mps 619 mmHg 87%
    03:00 +15°C° 0 mm 1 mps 619 mmHg 89%
    04:00 +14°C° 0 mm 1 mps 619 mmHg 90%
    05:00 +14°C° 0 mm 1 mps 619 mmHg 89%
    06:00 +15°C° 0 mm 1 mps 619 mmHg 83%
    07:00 +16°C° 0 mm 1 mps 620 mmHg 76%
    08:00 +19°C° 0 mm 1 mps 621 mmHg 70%
    09:00 +20°C° 0 mm 1 mps 621 mmHg 63%
    10:00 +22°C° 0 mm 1 mps 622 mmHg 56%
    11:00 +24°C° 0 mm 2 mps 623 mmHg 50%
    12:00 +24°C° 0.1 mm 2 mps 622 mmHg 49%
    13:00 +24°C° 0.1 mm 2 mps 622 mmHg 49%
    14:00 +24°C° 0.1 mm 1 mps 621 mmHg 48%
    15:00 +24°C° 0.2 mm 1 mps 621 mmHg 50%
    16:00 +23°C° 0.2 mm 1 mps 620 mmHg 53%
    17:00 +20°C° 0 mm 0 mps 620 mmHg 55%
    18:00 +22°C° 0.1 mm 1 mps 620 mmHg 56%
    19:00 +21°C° 0.1 mm 1 mps 620 mmHg 57%
    20:00 +21°C° 0.1 mm 1 mps 620 mmHg 58%
    21:00 +20°C° 0.1 mm 1 mps 621 mmHg 62%
    22:00 +19°C° 0.1 mm 2 mps 621 mmHg 65%
    23:00 +18°C° 0.1 mm 2 mps 621 mmHg 68%

    Tomorrow, 16 February, Saturday

    Time Temperature Precipitation Wind Pressure Humidity
    00:00 +17°C° 0.1 mm 2 mps 620 mmHg 75%
    01:00 +17°C° 0.1 mm 2 mps 620 mmHg 81%
    02:00 +16°C° 0.1 mm 1 mps 619 mmHg 87%
    03:00 +16°C° 0.1 mm 1 mps 619 mmHg 89%
    04:00 +15°C° 0.1 mm 1 mps 619 mmHg 91%
    05:00 +15°C° 0.1 mm 1 mps 619 mmHg 93%
    06:00 +16°C° 0 mm 1 mps 620 mmHg 88%
    07:00 +18°C° 0 mm 1 mps 620 mmHg 84%
    08:00 +18°C° 0 mm 1 mps 621 mmHg 79%
    09:00 +20°C° 0 mm 1 mps 621 mmHg 72%
    10:00 +22°C° 0 mm 1 mps 622 mmHg 64%
    11:00 +23°C° 0 mm 1 mps 623 mmHg 57%
    12:00 +24°C° 0.2 mm 1 mps 622 mmHg 55%
    13:00 +24°C° 0.2 mm 1 mps 621 mmHg 54%
    14:00 +24°C° 0.2 mm 1 mps 621 mmHg 53%
    15:00 +24°C° 0.3 mm 1 mps 621 mmHg 54%
    16:00 +24°C° 0.3 mm 1 mps 620 mmHg 55%
    17:00 +23°C° 0.3 mm 1 mps 620 mmHg 55%
    18:00 +22°C° 0.3 mm 1 mps 620 mmHg 60%
    19:00 +21°C° 0.3 mm 1 mps 620 mmHg 64%
    20:00 +20°C° 0.3 mm 1 mps 621 mmHg 69%
    21:00 +19°C° 0.2 mm 1 mps 621 mmHg 71%
    22:00 +19°C° 0.2 mm 1 mps 621 mmHg 74%
    23:00 +18°C° 0.2 mm 1 mps 621 mmHg 76%

    Day after tomorrow, 17 February, Sunday

    Time Temperature Precipitation Wind Pressure Humidity
    00:00 +18°C° 0.1 mm 1 mps 621 mmHg 77%
    01:00 +16°C° 0.1 mm 0 mps 620 mmHg 78%
    02:00 +15°C° 0.1 mm 0 mps 620 mmHg 79%
    03:00 +15°C° 0 mm 0 mps 619 mmHg 80%
    04:00 +15°C° 0 mm 0 mps 619 mmHg 82%
    05:00 +14°C° 0 mm 0 mps 619 mmHg 83%
    06:00 +16°C° 0 mm 0 mps 620 mmHg 78%
    07:00 +17°C° 0 mm 0 mps 621 mmHg 74%
    08:00 +18°C° 0 mm 0 mps 622 mmHg 70%
    09:00 +22°C° 0 mm 1 mps 622 mmHg 63%
    10:00 +23°C° 0 mm 1 mps 623 mmHg 56%
    11:00 +25°C° 0 mm 1 mps 623 mmHg 50%
    12:00 +25°C° 0.1 mm 1 mps 622 mmHg 48%
    13:00 +26°C° 0.1 mm 1 mps 622 mmHg 46%
    14:00 +26°C° 0.1 mm 1 mps 621 mmHg 45%
    15:00 +25°C° 0 mm 1 mps 620 mmHg 45%
    16:00 +25°C° 0 mm 1 mps 620 mmHg 45%
    17:00 +24°C° 0 mm 1 mps 620 mmHg 46%
    18:00 +23°C° 0 mm 1 mps 620 mmHg 51%
    19:00 +21°C° 0 mm 1 mps 620 mmHg 56%
    20:00 +19°C° 0 mm 1 mps 620 mmHg 61%
    21:00 +19°C° 0 mm 1 mps 620 mmHg 62%
    22:00 +18°C° 0 mm 1 mps 620 mmHg 63%
    23:00 +18°C° 0 mm 1 mps 620 mmHg 64%

    18 February, Monday

    Time Temperature Precipitation Wind Pressure Humidity
    00:00 +18°C° 0 mm 1 mps 619 mmHg 65%
    01:00 +16°C° 0 mm 1 mps 619 mmHg 66%
    02:00 +16°C° 0 mm 1 mps 618 mmHg 67%
    03:00 +16°C° 0 mm 1 mps 618 mmHg 68%
    04:00 +15°C° 0 mm 1 mps 618 mmHg 69%
    05:00 +15°C° 0 mm 1 mps 618 mmHg 70%
    06:00 +16°C° 0 mm 1 mps 619 mmHg 66%
    07:00 +17°C° 0 mm 0 mps 620 mmHg 62%
    08:00 +18°C° 0 mm 0 mps 621 mmHg 57%
    09:00 +22°C° 0 mm 1 mps 621 mmHg 52%
    10:00 +24°C° 0 mm 1 mps 622 mmHg 47%
    11:00 +25°C° 0 mm 1 mps 623 mmHg 42%
    12:00 +26°C° 0 mm 1 mps 622 mmHg 42%
    13:00 +26°C° 0 mm 1 mps 621 mmHg 41%
    14:00 +26°C° 0 mm 1 mps 620 mmHg 41%
    15:00 +25°C° 0 mm 1 mps 620 mmHg 42%
    16:00 +25°C° 0 mm 1 mps 619 mmHg 43%
    17:00 +24°C° 0 mm 1 mps 619 mmHg 44%
    18:00 +23°C° 0 mm 1 mps 619 mmHg 49%
    19:00 +21°C° 0 mm 1 mps 619 mmHg 54%
    20:00 +19°C° 0 mm 1 mps 619 mmHg 58%
    21:00 +19°C° 0 mm 1 mps 619 mmHg 59%
    22:00 +19°C° 0 mm 1 mps 619 mmHg 60%
    23:00 +18°C° 0 mm 1 mps 619 mmHg 61%

    19 February, Tuesday

    Time Temperature Precipitation Wind Pressure Humidity
    00:00 +18°C° 0 mm 1 mps 618 mmHg 62%
    01:00 +16°C° 0 mm 1 mps 618 mmHg 62%
    02:00 +16°C° 0 mm 1 mps 617 mmHg 63%
    03:00 +16°C° 0 mm 1 mps 617 mmHg 64%
    04:00 +15°C° 0 mm 1 mps 617 mmHg 64%
    05:00 +15°C° 0 mm 1 mps 617 mmHg 65%
    06:00 +16°C° 0 mm 1 mps 618 mmHg 63%
    07:00 +19°C° 0 mm 1 mps 619 mmHg 62%
    08:00 +19°C° 0 mm 2 mps 621 mmHg 60%
    09:00 +20°C° 0 mm 2 mps 621 mmHg 56%
    10:00 +23°C° 0 mm 2 mps 621 mmHg 53%
    11:00 +24°C° 0 mm 3 mps 622 mmHg 49%
    12:00 +25°C° 0.1 mm 3 mps 621 mmHg 48%
    13:00 +25°C° 0.1 mm 3 mps 621 mmHg 48%
    14:00 +25°C° 0.1 mm 2 mps 620 mmHg 47%
    15:00 +25°C° 0.2 mm 3 mps 620 mmHg 50%
    16:00 +24°C° 0.2 mm 3 mps 620 mmHg 52%
    17:00 +22°C° 0.2 mm 3 mps 619 mmHg 54%
    18:00 +21°C° 0 mm 2 mps 620 mmHg 59%
    19:00 +20°C° 0 mm 2 mps 620 mmHg 63%
    20:00 +19°C° 0 mm 1 mps 620 mmHg 68%
    21:00 +18°C° 0 mm 2 mps 620 mmHg 69%
    22:00 +18°C° 0 mm 2 mps 620 mmHg 70%
    23:00 +17°C° 0 mm 3 mps 620 mmHg 70%

    20 February, Wednesday

    Time Temperature Precipitation Wind Pressure Humidity
    00:00 +17°C° 0 mm 3 mps 620 mmHg 76%
    01:00 +16°C° 0 mm 2 mps 619 mmHg 81%
    02:00 +15°C° 0 mm 2 mps 618 mmHg 87%
    03:00 +15°C° 0 mm 2 mps 618 mmHg 87%
    04:00 +14°C° 0 mm 1 mps 618 mmHg 88%
    05:00 +14°C° 0 mm 1 mps 618 mmHg 88%
    06:00 +15°C° 0 mm 1 mps 619 mmHg 80%
    07:00 +16°C° 0 mm 2 mps 620 mmHg 72%
    08:00 +17°C° 0 mm 2 mps 621 mmHg 64%
    09:00 +19°C° 0 mm 2 mps 621 mmHg 56%
    10:00 +20°C° 0 mm 3 mps 622 mmHg 48%
    11:00 +22°C° 0 mm 3 mps 622 mmHg 39%
    12:00 +24°C° 0 mm 3 mps 622 mmHg 38%
    13:00 +24°C° 0 mm 3 mps 621 mmHg 36%
    14:00 +25°C° 0 mm 3 mps 621 mmHg 35%
    15:00 +24°C° 0 mm 3 mps 621 mmHg 36%
    16:00 +24°C° 0 mm 3 mps 621 mmHg 38%
    17:00 +22°C° 0 mm 3 mps 620 mmHg 39%
    18:00 +21°C° 0 mm 3 mps 620 mmHg 43%
    19:00 +19°C° 0 mm 2 mps 621 mmHg 47%
    20:00 +18°C° 0 mm 1 mps 621 mmHg 51%
    21:00 +18°C° 0 mm 1 mps 621 mmHg 55%
    22:00 +16°C° 0 mm 1 mps 620 mmHg 59%
    23:00 +15°C° 0 mm 1 mps 620 mmHg 63%
    Show more